Theta_e
337 334 331 329 328 328 328 327 328 326 323 324 329 332 332 332 332 330 330 328 321 317 316 315 316 319 317 317 320 322 323 322 321 321 320 319 318 316 316 318 322 324 325 325 325 325 326 326 326 327 328 328 327 327 326 326 327 327 328 329 328 328 327 327 326 325 325 325 325 326 327 327 327 327 327 327 327 327 327 327 328 327 327 327 327
338 335 332 329 328 329 330 329 329 326 325 328 330 331 332 332 331 329 329 326 319 315 315 315 316 317 315 317 320 321 322 322 321 321 320 318 316 313 312 313 317 321 323 324 324 324 324 323 323 324 325 325 326 326 327 327 327 327 328 329 329 329 328 328 327 326 326 325 326 326 326 327 326 326 325 325 326 327 327 327 327 327 327 327 327
337 334 332 330 330 330 330 330 328 324 326 331 330 331 332 330 331 330 328 323 317 315 315 315 316 316 316 317 318 318 319 320 318 316 316 315 314 312 310 309 311 314 318 321 322 323 322 322 321 322 323 324 325 326 327 328 328 328 328 329 329 328 328 328 327 327 327 326 326 326 326 326 325 325 325 325 326 327 327 327 327 327 328 327 327
335 334 331 330 331 330 329 329 327 325 328 331 331 331 330 330 330 329 324 318 314 314 315 316 316 316 318 317 317 317 317 318 316 313 311 310 311 312 311 311 310 312 314 317 319 320 319 320 320 321 322 322 324 325 326 326 327 327 328 328 328 328 328 328 328 328 328 327 327 327 326 325 324 324 324 324 325 326 327 327 327 327 327 327 327
335 334 331 330 330 330 329 328 326 328 330 331 331 331 330 330 330 325 318 315 314 313 314 316 316 316 318 316 317 318 317 317 315 313 311 309 309 310 311 312 313 313 314 317 319 319 317 317 319 320 322 322 323 323 324 324 325 326 327 327 327 327 328 327 328 328 327 327 327 326 327 326 325 325 324 325 325 325 326 326 326 326 326 326 327
335 334 331 331 330 330 329 328 328 329 330 330 330 330 330 329 329 322 315 314 314 313 314 317 316 315 314 314 315 315 315 313 311 310 309 308 308 308 309 312 313 313 313 316 319 319 318 317 319 321 322 322 322 323 323 323 324 324 325 326 327 327 327 327 327 327 326 327 327 326 326 326 325 325 325 326 326 325 325 325 325 325 324 325 325
333 333 331 331 330 329 329 328 329 329 330 330 329 330 330 330 330 322 315 314 313 313 316 318 318 316 314 313 314 314 312 309 308 307 307 307 307 307 308 310 311 311 312 315 319 320 319 318 319 320 321 322 322 323 323 323 324 324 325 325 326 326 326 326 326 326 326 326 327 326 326 326 325 325 325 326 326 326 325 324 323 323 323 323 323
332 332 330 330 329 328 328 329 329 330 330 330 330 331 330 331 329 320 315 314 313 315 319 319 319 317 317 316 316 316 312 307 307 307 306 307 307 307 307 308 309 309 310 314 318 319 319 318 318 319 320 321 321 321 322 322 322 321 322 323 325 326 326 326 326 326 326 327 327 327 327 326 325 325 326 326 325 324 324 323 323 323 323 322 322
331 331 330 329 328 327 328 329 331 332 332 332 332 332 331 331 326 318 316 315 313 317 321 321 321 319 319 318 318 318 313 307 307 307 306 307 307 306 307 307 307 307 309 313 317 318 318 318 317 318 319 320 320 320 320 320 319 318 316 318 322 325 325 325 326 326 326 327 327 327 327 326 326 326 325 325 323 322 323 322 323 323 322 321 322
330 329 329 328 327 329 331 332 332 333 333 332 332 332 331 329 324 318 316 315 316 320 321 322 322 320 320 318 317 316 311 308 307 307 307 307 307 306 306 306 306 306 308 312 314 315 315 315 315 315 317 317 318 317 316 314 312 311 311 314 319 323 325 325 326 326 326 326 326 326 326 326 326 326 325 324 323 322 322 322 322 322 320 319 320
328 328 328 327 327 330 332 333 333 333 333 333 332 332 330 327 323 320 319 319 320 323 322 322 322 321 320 319 316 312 309 308 307 307 307 307 306 306 306 306 306 306 307 310 312 312 310 309 308 308 309 310 311 310 308 306 305 305 308 312 316 319 320 319 319 322 324 325 325 325 326 326 325 325 324 323 323 323 322 321 319 319 317 316 317
329 329 329 329 328 330 332 332 333 333 333 333 332 331 330 329 325 322 322 321 321 322 323 322 322 321 321 319 315 311 308 309 308 307 307 307 306 306 306 306 306 306 306 308 309 308 307 306 305 305 305 305 306 306 305 305 305 305 307 309 310 310 310 308 307 310 315 319 322 323 324 324 324 324 323 323 323 323 322 320 317 316 315 315 316
330 331 331 331 330 331 332 332 333 333 333 332 332 331 331 330 328 324 322 319 316 319 323 323 323 322 321 320 315 310 308 308 308 307 307 307 306 306 306 306 306 306 306 306 307 306 306 306 306 306 306 306 306 306 306 306 306 306 306 307 307 306 306 306 305 306 308 312 317 320 321 322 322 322 322 322 321 319 319 319 319 317 314 314 316
330 331 332 332 331 332 332 332 332 332 332 332 332 332 331 330 329 325 323 320 314 315 322 324 323 322 322 321 316 310 308 308 308 307 307 307 306 306 306 306 306 306 306 306 306 306 306 306 306 306 306 306 306 306 306 307 306 306 306 306 306 306 306 306 306 307 307 308 310 312 313 313 314 316 317 315 311 309 309 312 313 313 311 312 315
329 329 331 331 331 331 330 330 331 331 332 332 332 332 332 331 330 327 324 323 318 316 322 325 325 324 321 319 315 310 308 309 308 308 307 307 307 307 307 307 306 306 306 306 306 306 306 306 306 306 306 306 306 306 306 306 306 306 306 306 306 306 306 306 306 306 306 306 306 307 306 306 307 308 307 306 305 304 304 305 305 307 309 312 315
327 328 328 329 331 331 330 330 330 331 332 332 333 333 332 331 331 329 326 325 322 321 323 322 322 321 317 314 313 312 310 308 308 308 308 307 307 307 307 307 307 307 306 306 306 306 306 306 306 306 306 306 306 306 306 306 306 305 306 305 306 305 305 305 305 305 305 305 305 304 304 304 304 304 303 303 303 303 303 303 303 305 308 311 314
327 328 327 328 329 329 330 330 330 331 333 333 333 333 333 330 330 330 328 325 322 322 324 324 322 319 312 310 312 315 314 310 309 309 308 308 308 307 307 307 307 307 307 307 306 307 306 306 306 306 306 306 306 306 306 305 305 305 305 305 305 305 305 305 304 304 304 304 304 304 303 303 303 303 303 303 303 303 303 303 303 304 305 308 311
327 327 326 327 327 327 328 329 329 330 331 333 334 334 334 332 331 329 327 325 323 322 324 326 325 318 312 311 313 319 319 313 312 310 308 309 308 308 308 307 308 307 307 307 307 307 307 307 307 307 306 306 306 306 306 306 306 306 306 306 305 305 305 305 305 304 304 304 304 304 304 304 304 304 303 303 304 303 303 303 303 303 303 304 306
326 324 324 327 327 327 328 328 328 328 328 330 331 331 333 334 333 331 328 327 325 323 323 324 323 316 312 313 316 320 319 314 313 311 309 310 309 309 310 309 309 309 308 308 308 307 308 307 308 307 307 307 307 307 307 307 307 306 306 307 307 307 307 306 306 306 306 306 305 305 305 305 305 305 305 305 305 305 305 305 305 305 305 305 305
326 324 325 327 327 327 327 327 328 328 328 328 328 328 330 331 332 331 329 327 326 325 323 323 323 318 316 316 317 319 318 315 313 310 310 312 311 311 312 313 314 313 312 311 310 309 309 309 309 309 309 309 308 308 308 308 308 307 307 307 307 308 308 308 307 307 307 307 307 307 307 307 307 307 307 307 307 307 307 308 308 307 308 308 308
325 325 325 326 326 327 327 328 329 329 329 329 328 328 329 329 329 328 328 327 326 325 325 324 324 322 319 318 317 319 320 319 315 312 313 315 314 312 313 315 317 317 317 315 314 313 312 311 311 311 311 311 311 310 309 309 309 308 308 308 307 308 308 308 307 307 307 307 307 307 307 307 307 307 307 307 307 307 307 308 308 308 308 309 308
324 324 325 325 325 326 326 327 328 328 329 329 329 329 329 328 329 327 327 326 325 326 326 325 325 324 321 318 318 319 320 319 318 315 314 316 316 316 316 317 318 318 318 317 316 316 315 315 315 314 313 313 313 313 312 312 312 311 310 310 309 308 308 308 307 307 307 307 307 307 307 307 307 307 307 307 307 307 306 307 307 307 307 308 308
325 324 324 324 324 325 325 326 326 327 327 327 327 327 327 327 327 326 327 326 326 326 326 326 326 324 321 318 318 318 318 318 318 316 315 317 318 318 319 319 318 319 319 318 317 316 316 316 317 317 316 316 316 316 316 315 314 314 314 314 313 312 311 310 309 308 308 308 308 307 307 307 307 307 307 307 307 307 307 306 306 306 306 306 306
324 325 324 324 324 324 324 325 324 325 325 325 325 325 324 325 325 326 326 326 326 326 326 326 326 324 320 318 319 319 318 319 318 317 316 318 320 319 319 320 319 319 318 317 317 318 317 316 317 317 317 317 317 317 317 317 317 317 317 317 316 316 315 315 314 313 311 310 310 309 308 307 307 308 308 308 309 309 308 308 307 307 306 306 306
324 324 324 324 324 324 324 324 324 324 324 324 324 323 323 323 325 326 325 325 326 325 325 325 325 324 320 317 318 319 319 319 319 318 318 319 320 319 319 319 320 318 316 317 318 318 318 318 318 318 318 318 318 318 318 318 318 318 318 318 318 318 318 318 317 316 315 314 313 312 311 310 310 310 310 311 311 311 310 310 309 308 308 307 308
322 322 322 322 323 323 323 324 324 324 324 323 324 323 323 323 324 325 325 324 325 324 325 325 325 324 321 318 317 316 317 319 319 318 318 318 318 318 319 319 319 317 315 317 319 318 318 319 318 318 318 318 318 319 319 319 318 318 318 319 319 319 319 319 318 318 317 316 315 315 314 314 313 313 313 314 314 314 313 312 311 310 310 311 311
319 318 318 319 321 321 322 322 323 323 323 323 324 323 324 323 323 324 324 324 324 323 323 325 324 323 321 320 317 314 315 317 316 316 318 318 318 318 319 320 319 318 316 319 320 318 318 318 318 318 318 319 319 319 319 319 319 319 319 319 319 319 319 319 319 319 318 318 317 317 316 316 316 315 315 315 314 314 314 314 313 313 312 313 313
317 316 315 316 317 318 318 319 320 321 321 322 323 323 324 324 323 323 323 323 323 322 322 323 324 323 321 320 319 316 315 315 315 316 318 319 319 319 319 320 320 319 318 319 319 317 317 316 317 318 319 319 319 319 320 319 319 318 317 318 319 319 319 319 319 319 319 318 318 317 317 317 317 316 316 315 314 313 313 313 313 313 313 313 312
317 316 314 313 313 313 313 314 316 318 320 321 322 322 322 323 323 323 323 323 322 321 321 322 322 322 322 321 321 319 317 316 317 318 318 318 318 319 319 319 318 318 319 319 318 317 316 316 317 319 319 319 319 320 320 319 318 317 316 317 319 320 319 319 319 319 318 318 318 317 317 317 317 317 316 316 314 313 313 312 312 312 312 312 312
318 317 315 314 313 313 312 312 313 314 316 317 318 319 320 321 322 322 322 322 322 321 321 322 321 321 321 321 319 318 318 318 318 319 319 318 318 318 318 317 317 317 318 318 317 316 316 317 318 319 319 319 319 319 320 319 319 318 317 317 319 319 319 318 319 319 318 318 318 317 317 317 317 316 316 315 314 313 312 312 312 311 311 311 311
315 317 317 316 314 313 313 313 312 312 313 313 313 314 316 318 320 321 322 322 321 322 322 321 321 321 321 320 319 319 319 319 320 320 320 319 318 318 319 317 316 317 317 317 317 317 317 317 318 318 319 319 319 319 319 319 320 319 319 320 320 319 319 319 319 319 318 318 318 318 317 317 316 316 315 315 314 313 312 312 312 311 310 309 309
311 312 315 315 313 313 312 312 312 312 312 311 310 311 313 315 317 319 319 318 318 318 319 319 320 320 319 318 318 318 318 318 319 319 318 317 317 317 317 316 317 318 318 317 317 316 316 316 317 317 317 318 318 318 318 318 318 319 319 319 319 319 320 320 319 319 319 319 319 318 317 317 316 316 315 315 314 313 312 312 312 311 309 308 308
309 309 310 310 310 310 310 311 311 311 311 310 309 310 311 312 313 313 313 313 312 312 313 315 316 315 313 313 313 313 313 314 315 315 314 314 314 314 313 314 315 315 315 315 314 313 313 314 314 315 315 315 315 316 315 315 315 315 315 316 316 317 318 318 319 319 319 319 319 319 318 317 316 316 315 315 314 312 311 311 311 310 308 308 309
309 308 308 307 307 307 307 308 309 309 309 308 308 308 309 309 310 310 309 310 309 309 309 310 310 310 309 309 310 311 310 310 311 312 311 310 310 311 311 312 312 312 312 311 311 311 311 311 311 311 311 312 312 312 312 312 311 310 311 312 314 314 315 315 316 316 316 317 318 319 319 318 316 315 315 314 312 311 311 311 311 309 308 308 308
308 308 308 307 307 306 306 306 307 308 307 307 307 307 307 308 308 308 308 307 306 307 308 308 307 307 307 308 309 309 309 308 309 311 311 310 309 309 310 311 310 309 308 308 308 308 308 307 306 306 306 307 308 309 310 310 310 310 311 311 312 312 312 312 312 312 312 314 316 318 318 317 316 316 314 313 312 311 311 311 310 308 307 307 307
305 306 307 307 307 308 307 307 307 307 307 306 306 306 306 307 307 307 307 306 306 306 307 307 307 306 306 307 307 308 307 307 308 309 309 309 308 308 307 307 306 305 305 304 304 303 303 302 302 302 302 303 304 306 307 308 309 310 311 312 312 312 311 311 310 310 310 312 315 317 317 317 316 315 313 312 311 311 311 311 309 308 307 307 307
302 303 304 304 305 306 307 307 307 307 306 306 306 305 305 306 306 306 307 306 306 307 306 306 307 307 307 306 306 306 306 306 306 307 307 307 307 306 304 303 303 303 303 302 302 301 300 300 300 300 300 301 302 302 303 304 306 308 309 310 311 312 312 312 311 310 310 311 313 314 315 316 315 313 312 310 310 311 310 309 307 306 306 307 307
301 301 302 302 302 303 304 305 304 304 305 306 306 306 305 305 306 306 306 306 306 306 306 306 306 306 307 306 306 306 306 306 306 306 307 306 305 304 303 303 303 303 303 303 302 302 302 301 301 300 300 300 301 301 302 303 304 306 308 309 311 312 312 312 311 309 309 311 312 313 314 314 313 311 310 310 311 310 309 308 306 306 306 306 305
299 300 301 301 300 301 302 302 302 302 302 303 304 305 306 306 306 306 305 305 306 306 306 306 306 306 307 306 306 306 306 306 306 307 307 306 305 305 305 305 305 305 305 305 304 303 303 303 301 300 299 299 300 300 302 304 306 307 308 310 311 312 312 311 310 309 309 310 312 312 313 312 311 310 310 310 309 308 307 306 306 306 306 306 304
300 301 301 300 300 300 301 301 301 301 301 301 302 303 304 305 306 306 307 306 306 306 306 306 306 305 306 306 306 306 306 306 306 306 306 306 306 306 306 306 305 305 305 305 304 304 304 303 302 301 300 299 299 300 301 304 307 309 310 311 312 312 311 311 310 309 310 310 311 311 312 312 311 310 309 308 307 306 306 305 305 305 304 303 302
300 301 301 301 301 301 301 301 301 301 301 301 302 302 302 302 303 304 305 305 305 306 305 306 306 306 306 306 306 306 306 306 306 306 306 306 306 306 306 305 305 305 304 305 305 305 305 304 304 303 301 300 300 301 302 305 307 309 310 311 311 311 311 311 310 309 310 310 310 310 310 310 309 309 307 306 305 305 305 304 304 303 302 301 301
299 300 300 300 300 300 300 300 300 301 301 301 301 301 301 301 302 302 302 303 303 304 303 304 305 305 305 305 305 305 305 305 305 305 305 306 306 305 305 305 305 305 305 305 305 306 306 305 305 304 302 301 302 303 305 307 309 309 309 310 310 310 310 310 310 309 309 309 309 308 308 308 307 307 306 305 305 305 304 303 302 302 301 301 300
299 299 298 298 298 298 298 298 299 299 300 300 301 301 301 301 301 301 301 301 302 302 302 303 303 304 304 304 303 304 304 304 304 304 304 305 305 305 305 305 305 305 305 305 305 305 305 305 304 304 302 302 304 306 308 308 309 309 309 309 309 310 310 310 310 309 308 308 307 307 306 306 306 306 305 305 304 303 302 302 302 301 299 297 296
298 298 298 298 298 298 297 297 298 298 299 299 300 300 301 301 301 301 301 302 301 302 302 303 303 303 303 303 303 304 304 304 304 304 304 304 305 305 305 305 305 305 305 304 304 304 303 303 303 303 303 303 305 306 307 307 307 307 307 308 309 309 309 309 309 308 307 306 306 305 305 305 305 304 304 303 303 302 301 301 299 297 296 294 294
298 298 298 298 298 298 298 298 298 298 298 298 299 299 300 300 301 301 301 302 301 302 302 302 302 302 303 303 303 303 303 304 304 304 304 304 304 304 304 304 304 304 303 303 303 303 303 303 302 303 303 304 305 305 305 306 306 306 306 307 308 308 309 308 308 307 306 305 304 304 304 303 303 302 302 302 301 300 298 297 295 294 293 293 293
297 298 298 298 298 298 298 298 298 298 298 298 298 298 299 299 299 300 300 301 301 301 302 302 302 302 302 302 302 303 303 303 303 303 303 303 303 303 304 304 303 302 302 303 303 303 303 304 303 303 304 305 305 306 306 306 306 306 306 306 306 307 307 307 306 305 304 303 302 302 302 302 302 301 300 298 297 295 294 293 293 293 293 293 293
297 297 298 298 298 298 298 298 298 298 298 298 298 298 298 299 299 299 299 299 299 300 300 301 301 301 302 302 302 302 302 302 302 302 303 303 302 303 303 303 302 302 302 303 303 304 304 304 304 305 306 306 306 307 307 306 306 305 305 305 305 305 305 305 304 303 303 302 302 301 301 300 299 297 295 294 293 293 293 293 293 293 293 293 293
297 298 298 298 298 298 298 298 297 297 297 297 298 298 298 299 299 299 299 299 299 299 299 299 299 300 300 301 301 302 302 302 302 302 302 302 302 302 302 302 303 303 303 303 303 303 303 304 304 306 306 304 304 305 306 306 305 305 304 303 303 303 303 303 303 302 302 301 300 298 296 295 294 293 293 292 293 293 293 293 293 293 293 293 293
296 297 298 298 298 298 298 297 298 297 297 297 298 298 298 299 299 299 299 299 299 299 299 299 299 299 299 299 299 300 301 301 301 302 302 302 302 302 303 303 303 303 303 303 303 303 302 303 304 305 305 304 304 305 306 306 305 304 303 302 302 302 301 301 302 301 300 297 295 294 293 292 292 292 293 293 292 293 293 293 293 293 293 293 293
294 296 297 297 297 298 298 298 298 297 297 297 297 298 298 298 298 298 298 298 298 298 298 299 299 299 299 299 299 299 300 300 301 301 301 302 302 302 302 303 303 303 303 303 303 302 302 303 303 304 305 305 305 306 305 304 304 303 302 301 301 300 301 301 300 298 295 293 293 293 293 293 293 292 293 292 292 293 293 293 293 293 293 293 292
294 294 295 296 297 297 297 297 297 297 297 297 297 297 297 297 297 297 297 296 296 296 297 297 297 298 299 299 299 300 300 300 300 300 301 301 301 301 301 301 302 302 303 303 303 303 303 303 303 303 304 305 306 305 304 303 303 302 301 300 299 300 300 299 296 294 293 293 294 293 293 292 292 292 292 292 292 293 293 293 293 293 293 292 292
Wind_Speed
28 28 30 31 30 29 31 32 29 25 20 19 23 26 24 23 22 19 16 14 11 12 13 13 13 11 11 11 11 9 8 7 6 5 4 2 2 2 4 5 5 5 4 4 4 4 3 2 3 5 6 8 9 10 12 14 14 14 15 17 19 19 18 16 15 14 13 12 12 13 11 10 11 11 11 11 11 12 12 11 11 11 12 12 12
29 31 36 35 32 31 32 32 30 23 19 21 24 25 25 23 21 19 16 15 13 13 15 14 12 10 9 10 10 8 7 5 4 3 2 2 2 2 3 5 6 6 6 5 4 4 2 1 2 3 3 5 5 7 10 13 13 13 14 16 18 18 17 16 15 15 13 13 13 13 12 12 11 11 10 11 11 11 12 13 12 11 12 11 11
33 36 38 38 36 34 33 33 30 23 21 24 24 25 25 23 22 19 17 16 14 15 16 14 12 10 8 8 8 7 6 5 3 2 2 2 2 2 2 3 5 6 6 6 5 4 2 1 1 2 2 3 4 6 8 11 12 12 12 15 17 16 15 15 15 16 14 13 13 13 12 12 11 11 11 11 11 10 11 13 14 14 13 12 11
36 37 38 38 37 36 36 35 30 26 28 28 28 27 26 24 22 20 19 18 17 19 18 15 13 11 9 8 7 6 5 4 3 2 2 2 3 3 3 3 3 3 4 5 5 4 3 2 2 2 2 4 5 5 7 8 10 11 12 14 15 13 12 13 14 15 13 11 11 11 11 10 9 10 11 11 11 11 11 12 13 13 13 13 12
39 40 40 41 39 37 36 34 32 32 34 33 31 29 26 24 23 21 21 20 20 21 19 17 16 14 12 11 9 7 7 5 5 5 4 3 3 3 3 3 3 3 3 4 4 3 3 3 2 2 2 3 3 3 4 5 5 7 9 12 13 12 11 12 12 12 10 9 10 9 8 8 7 8 9 9 10 11 11 12 12 12 11 12 13
39 40 41 42 39 35 33 33 34 36 37 34 33 30 27 24 23 22 22 22 23 22 20 18 17 14 12 10 9 9 8 6 5 5 5 4 4 4 4 4 3 2 3 3 3 4 3 3 3 3 2 2 1 1 1 2 2 3 6 8 10 11 12 12 12 12 10 10 11 11 8 7 7 7 6 6 7 9 9 8 8 8 7 9 11
36 37 37 38 38 34 33 32 34 37 36 34 32 30 27 25 24 24 24 24 24 23 21 19 16 13 9 7 6 7 7 7 6 5 5 5 4 4 3 3 3 2 3 3 4 4 4 4 3 3 3 2 2 2 2 2 2 1 1 4 7 9 10 11 11 10 10 11 11 11 10 9 7 6 7 6 5 6 6 4 3 3 3 5 8
35 36 35 36 36 35 34 33 33 35 35 33 32 30 27 24 25 26 26 26 25 23 21 18 16 13 9 7 6 6 7 8 8 7 6 5 4 3 2 3 3 3 3 3 3 4 3 3 2 2 3 2 2 1 2 3 4 4 4 2 2 5 7 8 8 8 9 10 10 11 11 9 7 6 6 6 4 6 7 5 4 3 1 3 6
33 35 35 36 36 35 34 33 33 34 34 32 31 29 25 24 25 27 26 26 25 22 20 19 16 12 10 9 8 8 9 9 9 8 7 5 4 3 4 4 4 3 4 4 4 3 2 1 1 2 2 2 1 1 2 4 5 5 5 4 3 1 4 6 6 7 8 8 9 11 11 8 7 6 5 6 5 6 7 5 5 6 4 2 4
32 33 34 35 35 35 33 32 32 33 32 30 29 26 24 23 25 27 26 25 24 22 20 19 18 14 12 11 10 10 11 11 9 8 7 6 5 5 5 4 4 4 5 5 4 2 0 1 1 0 1 1 1 2 3 4 5 4 3 2 3 3 1 1 2 3 5 6 6 9 11 9 7 7 6 6 5 5 6 5 5 6 4 1 0
31 31 31 32 34 35 32 29 31 32 31 30 29 26 23 23 24 26 26 24 23 21 21 20 18 16 14 13 11 11 12 11 9 8 8 7 7 6 6 5 5 5 5 5 5 2 1 2 2 3 3 3 2 3 3 4 3 4 3 2 2 3 4 3 2 1 1 2 2 4 8 9 7 5 5 5 4 4 5 5 5 6 5 4 3
29 30 29 29 33 34 31 29 29 31 31 31 30 27 24 24 25 26 26 23 21 21 20 20 19 18 17 15 12 11 12 11 8 8 8 8 8 7 7 7 6 6 5 5 6 5 5 6 7 8 9 9 9 8 8 9 9 9 8 6 5 5 5 5 4 3 3 3 3 3 3 4 3 2 3 3 3 3 3 5 6 6 6 5 4
27 28 29 29 32 34 33 30 29 30 31 31 30 28 26 25 24 23 23 23 22 22 20 20 20 19 17 16 14 12 12 10 8 8 8 8 8 8 8 8 7 7 7 7 8 8 7 8 9 9 10 10 10 10 9 9 10 10 9 8 7 7 7 7 6 6 5 4 4 3 2 1 1 0 1 2 3 4 4 5 6 4 4 5 3
25 26 28 30 31 32 32 30 28 28 29 30 30 29 28 26 24 23 24 25 25 24 22 20 20 18 17 17 15 13 13 11 10 8 8 9 8 8 8 8 8 8 8 8 8 8 8 8 8 8 8 8 8 8 8 8 8 8 7 7 6 7 7 6 6 6 5 4 4 3 2 1 1 1 2 2 2 2 3 4 5 5 5 6 5
18 20 24 27 28 30 29 28 28 28 29 29 29 28 27 26 24 25 27 29 27 26 24 22 21 18 16 16 16 16 14 12 11 10 9 10 10 9 9 9 9 9 9 9 9 9 9 8 8 7 7 7 7 6 6 6 6 6 6 5 5 6 6 5 5 5 5 5 4 4 3 2 2 2 1 1 1 2 1 1 2 4 6 9 8
14 14 18 22 25 27 28 27 28 29 29 29 29 28 26 25 25 26 28 29 26 25 26 24 22 20 17 17 18 18 16 12 11 11 11 11 11 10 10 10 10 10 10 10 10 10 10 10 10 9 9 8 8 7 7 7 7 6 6 5 5 6 6 6 5 5 5 5 5 4 4 4 4 3 3 2 3 3 3 3 3 4 6 9 10
13 12 11 14 18 22 25 27 29 29 30 30 31 31 28 27 28 26 26 26 25 26 27 26 24 22 21 21 21 20 17 13 12 12 12 13 13 12 11 11 11 11 10 10 10 10 10 10 11 11 10 10 10 10 9 9 9 8 8 7 7 7 7 7 7 6 7 7 6 5 5 5 5 5 4 3 3 3 4 4 4 4 5 7 9
9 7 6 10 14 16 17 20 24 26 28 30 32 32 29 27 28 24 20 21 23 26 29 27 24 22 23 24 25 23 18 12 13 15 14 15 15 15 13 12 11 11 11 10 10 10 10 10 10 11 11 11 10 11 10 10 10 9 9 9 9 9 9 9 8 8 8 8 7 7 6 6 7 6 5 5 5 5 4 4 4 4 5 5 6
12 10 11 15 15 15 13 13 15 18 23 27 29 30 29 27 27 23 19 19 22 26 30 29 25 23 26 27 26 25 21 16 16 19 18 16 16 16 14 13 11 11 10 10 10 10 10 9 9 9 9 10 10 9 10 10 9 9 9 9 9 9 9 9 8 8 9 9 8 7 7 7 7 7 6 6 6 6 5 5 6 6 6 6 6
17 16 15 14 12 12 11 9 9 12 17 21 23 25 25 25 25 22 20 20 22 27 30 29 27 26 27 29 26 25 24 20 20 22 19 16 17 17 15 14 12 10 10 9 8 8 8 8 8 8 7 8 8 8 8 8 8 8 7 7 7 7 8 7 7 7 7 7 7 6 6 6 5 5 5 5 5 5 5 4 5 6 6 6 6
16 15 13 10 8 7 6 5 6 8 11 13 15 16 18 19 19 17 18 20 23 27 27 28 28 25 26 30 28 26 26 23 21 22 19 16 17 18 16 14 12 11 10 8 7 7 7 7 7 7 6 6 6 6 6 6 6 6 7 6 5 5 5 5 5 5 5 4 4 4 3 3 3 3 3 3 3 3 3 3 2 3 3 3 3
14 14 12 9 7 5 4 4 5 7 8 10 11 11 12 12 12 12 15 18 21 24 24 26 26 25 27 31 29 26 25 23 21 21 21 17 17 17 15 13 13 12 11 9 8 8 7 7 8 7 7 6 5 5 5 6 6 6 6 6 6 5 5 4 4 4 4 3 2 2 2 1 0 1 1 2 2 2 2 3 3 3 3 3 3
12 12 11 10 7 6 5 4 5 6 6 7 7 7 8 8 8 10 12 14 17 20 20 21 23 24 27 29 29 27 24 21 22 23 22 19 17 16 15 14 14 12 12 12 11 11 10 10 10 9 8 7 6 6 5 5 5 5 5 5 5 5 5 5 4 4 4 4 3 4 4 3 2 2 2 3 3 3 3 4 5 5 6 6 6
12 12 11 11 9 8 7 5 4 4 4 4 4 5 5 6 8 10 11 13 15 16 17 19 21 23 27 28 28 26 22 20 21 21 20 19 20 19 17 16 15 13 14 14 15 15 14 13 12 10 9 8 7 6 6 5 5 5 5 5 5 4 4 4 4 5 6 5 5 5 5 5 4 3 3 3 4 5 5 5 6 7 7 8 9
16 14 11 10 9 7 7 5 4 3 2 3 3 4 4 6 9 11 11 12 13 13 14 18 21 24 28 29 28 26 23 21 19 18 19 21 22 22 20 19 18 16 16 17 18 20 19 17 14 12 11 9 8 8 7 7 6 6 6 6 6 5 5 5 4 5 6 6 6 6 6 5 5 4 3 3 4 5 6 6 7 7 7 9 10
16 14 11 9 7 6 5 5 4 2 2 1 1 2 3 5 8 9 10 10 10 11 13 19 23 25 29 31 30 28 25 23 20 19 20 21 21 22 23 23 22 21 21 21 22 22 23 22 19 16 14 12 11 10 10 9 8 8 9 9 9 9 8 8 8 8 8 8 7 7 6 5 5 4 4 4 4 6 7 7 8 8 8 10 12
14 13 12 10 8 7 5 4 3 2 2 2 2 3 4 5 5 7 9 9 8 9 13 18 21 24 26 27 27 26 25 24 24 23 23 24 24 24 26 26 25 23 23 24 24 23 23 23 23 21 18 15 14 14 13 12 11 11 12 12 12 12 12 12 12 12 11 11 11 10 9 7 6 5 5 5 6 6 6 6 8 10 11 12 13
13 13 13 12 11 9 6 5 5 4 4 4 4 4 4 4 4 5 7 8 8 9 11 15 18 21 22 22 22 23 24 26 27 26 26 27 26 25 25 26 25 23 24 25 24 23 22 21 22 22 19 16 16 16 15 14 13 15 16 17 16 15 15 16 16 16 15 15 14 14 13 11 10 9 9 9 9 9 8 6 7 9 11 13 14
14 13 13 12 11 9 8 7 7 7 7 6 6 5 5 4 5 5 6 8 9 9 9 11 15 18 19 19 18 18 20 23 26 26 26 28 28 25 24 24 24 24 26 26 25 25 23 21 21 20 17 16 17 18 17 16 17 19 19 19 19 18 17 17 18 19 18 18 18 17 16 15 14 13 12 12 12 11 10 9 8 9 10 12 13
13 12 12 12 12 11 10 9 8 8 8 8 7 6 5 5 5 5 7 9 9 9 9 9 11 12 14 15 14 14 15 18 21 23 26 26 25 24 24 25 24 24 25 26 25 24 22 20 19 17 16 17 18 19 19 20 21 20 19 19 19 18 18 17 18 20 20 20 20 20 19 18 17 16 16 15 14 13 13 12 11 10 10 11 13
8 10 12 12 12 12 12 11 10 9 8 8 7 7 7 7 7 7 7 7 7 7 8 9 10 11 13 13 12 12 13 14 15 17 18 16 15 16 18 18 17 16 17 17 17 15 14 13 12 11 11 13 14 15 16 16 16 15 15 15 16 16 17 17 17 19 21 20 20 21 22 21 21 20 19 18 17 15 15 15 13 12 12 11 13
8 8 9 10 11 11 12 12 11 10 8 8 7 7 8 9 10 10 8 7 5 4 5 7 8 9 9 9 9 9 10 10 10 10 10 9 8 9 9 10 10 9 9 9 9 9 9 8 8 8 8 9 9 9 9 10 10 10 10 12 13 14 15 15 16 17 18 19 19 21 23 23 23 23 22 21 20 18 17 17 15 14 14 13 13
12 12 12 12 11 11 11 11 11 11 9 8 7 8 9 9 9 9 8 7 6 6 7 7 8 8 8 8 8 8 8 9 10 11 11 10 10 10 9 9 10 10 10 10 10 9 9 8 8 8 8 9 9 9 9 9 10 10 10 11 12 12 13 14 14 15 16 17 18 19 21 23 25 25 24 24 22 20 19 19 17 15 15 15 16
12 12 14 16 16 16 15 13 12 12 11 8 8 8 9 8 8 8 7 7 6 7 8 8 8 8 8 9 9 9 9 10 11 11 11 10 9 9 9 9 10 10 10 10 10 10 9 9 10 10 11 11 11 11 12 12 11 11 11 12 12 13 13 13 14 15 15 17 17 17 19 21 24 26 26 25 23 21 21 21 18 17 17 17 18
14 11 9 11 12 13 15 15 13 12 12 10 8 6 7 7 8 7 7 6 7 8 9 8 7 7 7 8 10 10 9 10 11 11 11 10 10 10 9 10 10 10 10 10 10 10 10 10 11 11 12 12 12 12 12 12 11 11 10 11 12 13 14 15 16 16 16 16 16 16 17 19 22 25 26 25 24 23 23 22 19 18 19 19 20
17 14 11 9 7 4 6 8 8 8 9 8 6 6 5 6 8 8 7 8 9 10 10 9 8 8 8 8 9 10 10 10 11 12 12 12 12 12 12 12 12 11 10 10 10 10 10 9 10 10 10 11 12 13 13 13 13 12 11 12 12 13 15 15 16 16 16 15 15 15 14 15 18 23 25 25 25 25 24 22 19 19 19 21 22
14 12 11 10 8 5 1 3 3 3 5 5 4 4 4 5 7 8 7 8 9 9 9 10 10 10 10 9 9 10 10 11 12 12 12 13 12 11 10 10 9 9 9 9 9 9 9 9 10 10 11 11 12 13 14 14 14 14 14 13 13 14 15 15 16 16 15 14 13 12 12 13 17 22 24 25 26 25 23 20 19 19 20 22 24
11 9 8 9 8 6 3 2 3 2 4 7 8 7 4 4 5 5 3 4 7 8 8 8 9 10 10 10 11 11 10 11 12 12 12 12 10 9 8 7 8 8 9 9 10 10 11 11 11 12 13 14 14 14 14 14 14 14 14 14 14 15 16 17 17 16 15 13 11 10 11 13 18 22 24 25 25 23 21 20 20 21 23 24 25
10 9 8 8 8 5 3 2 2 2 4 6 8 10 12 12 10 7 5 6 7 8 8 8 9 8 8 9 10 11 11 11 12 12 12 12 11 10 9 8 8 10 11 13 13 12 12 13 13 14 14 15 16 16 16 15 15 14 14 13 14 15 16 17 17 16 14 13 11 10 12 16 20 23 23 23 23 22 21 21 22 24 25 25 24
11 11 10 10 10 8 6 6 6 6 7 6 6 7 9 12 14 15 14 14 12 12 11 11 10 8 8 8 8 9 9 10 10 11 11 11 11 10 10 9 10 12 13 15 14 13 13 15 16 16 16 16 17 17 17 16 15 14 14 14 14 15 15 16 16 14 13 12 11 12 15 18 20 21 20 21 21 21 22 22 23 24 24 23 23
13 14 15 14 14 13 12 12 12 11 11 10 9 7 6 7 9 11 15 17 18 18 17 16 16 13 11 12 12 12 11 11 12 12 12 12 11 11 11 11 13 14 15 15 15 15 16 17 18 20 20 20 18 17 16 14 14 13 13 13 13 13 13 13 13 12 11 12 13 14 16 18 19 20 20 21 22 23 23 22 22 22 22 23 25
15 16 17 17 17 17 17 17 16 15 14 14 13 11 8 8 8 9 11 13 15 17 18 18 19 18 18 17 17 18 18 17 17 17 16 15 14 14 14 15 15 15 16 16 16 16 17 18 19 22 23 21 18 15 14 13 13 13 13 13 13 13 13 12 12 11 11 12 14 15 17 18 20 20 21 22 22 22 22 22 22 23 25 27 28
18 19 20 21 21 22 22 21 20 19 17 16 15 14 12 11 10 11 12 13 14 16 18 19 19 20 20 20 19 19 20 21 21 20 18 18 17 17 17 17 17 17 17 16 16 16 17 19 21 23 23 20 16 14 13 13 13 13 13 13 13 13 13 12 11 11 11 12 13 15 17 18 20 20 21 21 21 21 22 23 24 25 27 28 29
19 20 21 22 23 23 24 24 23 22 20 18 16 15 13 12 11 12 13 15 16 17 18 20 21 21 22 22 21 20 19 20 21 20 20 19 18 18 18 18 18 18 18 17 17 17 19 20 22 23 22 19 15 14 14 14 14 14 13 12 12 12 12 12 12 12 11 11 13 15 17 18 19 20 20 20 21 21 22 23 24 25 26 26 27
20 19 19 20 22 22 22 23 22 22 22 22 20 18 16 14 13 13 13 14 16 17 18 19 20 21 22 23 23 22 21 21 22 22 23 23 22 22 21 20 19 19 19 19 19 20 21 22 22 22 22 20 17 15 15 14 14 13 12 11 11 12 13 14 13 11 10 12 14 16 17 18 19 19 20 21 21 22 22 22 23 23 23 24 25
23 22 21 21 22 23 23 23 22 21 20 21 22 22 21 20 18 18 17 16 16 17 17 18 19 19 20 21 22 22 22 22 22 24 24 25 25 25 24 22 22 21 20 20 19 20 20 21 22 23 24 23 20 17 16 15 14 12 11 11 12 13 14 15 13 12 12 15 16 17 17 18 18 19 20 20 20 19 19 20 20 21 22 23 25
22 21 20 21 22 23 23 23 23 22 21 20 20 21 21 22 22 23 23 23 22 22 21 20 20 20 20 20 21 21 21 22 22 23 23 24 25 25 25 25 24 23 21 20 19 20 19 20 22 24 25 23 20 17 16 15 14 12 12 11 12 14 15 15 13 13 15 16 16 16 16 16 17 17 16 16 16 17 17 18 19 20 22 23 25
21 19 19 20 21 22 23 23 23 22 21 20 20 20 20 21 22 23 24 25 26 26 26 26 25 25 24 23 23 23 23 23 23 23 23 23 23 24 24 25 24 23 22 21 21 21 21 21 21 21 19 17 16 16 16 14 13 12 11 11 12 13 14 14 14 14 15 15 14 14 14 13 13 14 13 14 15 16 17 18 19 21 22 23 24
23 21 21 21 22 23 23 24 24 23 22 22 22 22 21 21 22 23 23 25 26 26 27 28 28 28 28 28 27 27 26 26 26 26 25 24 23 22 23 23 22 22 22 21 21 21 21 21 19 17 16 16 16 16 15 13 12 11 10 10 11 12 13 13 13 13 13 12 11 11 11 11 11 12 13 14 15 16 17 18 19 21 22 23 24
24 23 22 22 23 24 24 24 24 23 24 25 25 24 24 23 24 25 26 27 28 28 29 29 29 29 29 29 29 29 28 28 28 29 28 27 25 24 24 23 22 21 20 20 20 20 20 19 18 18 17 15 14 12 12 12 12 11 10 11 11 11 11 11 11 11 11 9 9 8 9 10 11 12 13 14 15 16 18 19 20 21 23 24 25
25 25 25 25 25 25 25 25 25 25 25 26 27 27 27 27 28 29 29 30 31 32 33 33 32 32 32 31 30 30 29 29 29 29 28 28 28 27 26 25 24 24 23 20 19 18 18 18 19 19 18 16 15 13 12 12 11 10 11 11 11 11 10 10 10 9 8 7 7 7 8 9 10 11 13 14 15 17 18 20 21 22 23 23 23
Wind_Direction
185 183 185 187 188 186 185 187 192 198 200 200 197 194 189 186 186 182 183 191 201 207 202 200 207 211 215 216 215 214 207 204 202 200 207 227 257 254 238 229 219 211 212 216 214 216 223 227 235 235 236 237 237 235 231 228 226 224 220 215 213 213 212 216 224 227 228 232 227 220 221 228 236 239 236 240 243 240 235 229 225 221 221 225 227
181 181 182 184 189 190 191 194 198 201 199 199 197 191 190 191 191 188 191 197 202 208 203 202 211 215 215 210 209 211 203 211 226 217 223 253 251 234 220 216 214 210 206 211 220 216 208 215 232 231 233 234 237 235 230 229 229 229 223 218 218 216 213 216 222 226 226 227 226 223 226 233 243 249 247 250 255 250 239 232 231 227 222 225 228
182 182 183 185 188 190 194 197 200 200 196 196 194 191 192 193 193 194 198 198 200 206 205 206 210 209 208 201 203 208 198 204 238 263 268 277 267 253 247 226 218 215 208 204 210 212 204 204 225 229 225 217 218 220 222 226 227 229 226 223 224 219 214 216 220 226 226 222 228 232 235 237 236 240 241 243 248 249 243 237 236 234 232 233 234
183 185 187 189 192 195 196 197 199 196 192 194 194 193 192 191 192 197 200 198 198 202 205 208 204 195 193 191 196 207 197 197 227 253 252 257 264 269 271 252 236 233 219 208 208 218 227 226 223 213 209 207 205 210 220 227 226 227 229 230 231 225 217 219 225 232 227 216 224 232 233 232 225 224 228 232 236 237 237 236 235 239 242 239 238
183 187 191 191 194 198 196 196 196 191 190 192 192 192 191 190 194 200 200 196 198 202 201 201 195 186 187 187 190 197 195 203 228 232 224 224 235 243 240 232 238 254 248 226 203 206 214 211 217 203 199 209 202 209 230 243 241 231 230 232 234 233 228 228 236 245 239 224 229 229 220 223 223 216 214 222 229 230 232 236 240 245 248 243 242
188 191 193 192 194 195 195 195 193 188 189 191 191 193 193 195 199 201 198 195 199 201 196 194 192 188 188 189 190 192 191 194 216 225 218 215 221 217 204 198 215 246 255 227 173 161 164 172 187 178 179 204 193 172 222 262 267 240 233 231 230 230 231 234 239 246 246 235 234 234 230 231 234 228 214 214 222 223 227 235 244 251 253 251 252
194 196 197 196 195 194 195 195 192 189 190 191 192 197 199 202 205 201 196 195 198 196 193 193 194 193 195 196 197 195 188 178 181 200 204 206 213 208 195 192 209 251 258 215 160 148 154 157 163 151 148 154 122 92 82 72 57 57 233 234 231 227 228 232 235 240 241 235 232 234 239 242 244 236 219 209 204 199 197 196 219 247 267 267 262
197 200 202 201 199 197 197 197 196 194 193 194 197 200 204 208 207 199 193 196 197 193 191 195 197 198 202 207 209 208 199 179 173 182 187 191 199 198 201 207 219 246 243 213 169 150 153 154 152 142 145 145 118 82 59 54 46 40 38 30 256 233 226 226 224 227 231 233 232 231 233 238 238 228 212 206 194 179 177 177 183 176 178 252 258
201 204 205 205 203 201 200 200 199 198 197 199 202 205 208 211 206 196 194 196 195 191 191 196 202 206 209 213 214 211 204 187 175 175 174 175 181 182 192 201 208 212 213 209 190 165 159 97 79 132 162 178 198 290 317 335 343 348 359 18 22 289 232 219 213 216 222 226 227 223 224 227 219 200 188 196 195 180 178 177 162 144 145 217 261
204 206 207 207 205 200 199 200 200 201 203 205 208 211 213 212 205 196 194 195 192 190 193 197 204 212 219 220 218 213 202 188 175 172 168 170 171 173 179 182 184 186 190 199 201 205 290 354 355 336 236 260 282 312 323 325 329 336 341 2 35 36 43 186 197 202 209 216 217 216 220 221 211 191 181 192 204 205 200 198 180 159 148 117 305
203 204 206 206 201 197 197 201 203 205 207 209 212 216 219 214 203 193 188 187 188 191 197 201 206 214 223 222 221 219 204 189 180 175 171 168 167 168 171 171 170 172 178 183 186 185 124 94 77 82 82 78 79 64 56 57 58 70 79 83 80 64 61 61 54 76 161 199 188 198 217 223 218 208 205 206 215 225 213 191 166 145 128 95 90
200 202 204 203 199 198 200 204 207 207 208 212 215 216 212 202 193 187 184 185 193 200 202 205 209 215 222 223 222 219 204 192 185 179 173 169 167 167 168 169 165 160 159 158 157 148 123 109 100 96 94 95 98 93 84 80 82 88 94 98 99 93 84 75 70 68 60 68 105 124 202 232 242 251 241 227 226 236 214 179 157 132 117 106 99
200 202 204 204 202 202 204 208 210 211 212 213 212 208 201 194 188 186 188 192 202 208 206 209 213 215 220 226 225 216 203 192 183 177 174 170 167 165 165 166 163 154 146 140 140 134 121 112 107 102 100 101 103 100 92 86 85 88 93 97 96 90 86 81 79 77 70 71 94 114 141 210 257 268 234 249 257 257 243 216 204 183 142 136 139
201 206 208 207 207 207 208 212 215 218 217 212 209 210 209 205 197 194 199 201 204 210 210 211 216 218 223 232 230 214 200 189 177 174 177 173 166 164 163 162 161 153 144 140 137 133 129 121 115 111 108 105 103 102 98 93 91 89 90 91 90 85 81 79 80 80 80 81 86 102 122 144 165 196 220 258 276 267 251 235 229 222 184 170 177
197 206 210 211 211 211 213 218 222 223 218 212 211 212 213 214 209 204 206 204 202 207 208 210 218 222 226 235 233 216 199 186 175 174 182 177 169 171 170 164 162 158 152 147 142 140 135 130 126 122 115 110 105 100 98 97 94 90 88 87 87 87 81 79 81 79 82 85 87 92 96 102 118 131 127 80 60 78 111 164 190 195 177 171 172
192 203 211 215 215 215 217 220 224 223 217 214 216 216 219 227 229 217 206 202 204 209 208 209 215 215 217 227 229 215 198 188 182 181 188 184 177 181 177 169 169 168 164 158 150 145 138 134 134 130 120 114 111 109 104 102 97 92 89 85 80 81 81 80 78 72 72 77 85 94 95 91 94 94 86 84 80 84 89 90 111 153 170 173 172
170 180 197 215 219 221 222 223 225 222 217 218 222 226 230 238 239 225 207 202 209 214 211 210 212 210 213 219 220 211 197 191 191 189 196 193 185 188 185 178 178 175 172 168 160 153 146 139 137 135 130 123 118 115 111 107 105 103 99 95 87 83 84 85 82 78 77 81 83 84 87 89 85 78 73 72 67 61 63 69 89 119 148 169 174
163 165 209 235 233 232 231 230 230 226 223 224 227 232 236 237 236 228 215 209 210 213 212 211 211 211 215 216 215 211 201 197 199 196 205 207 193 189 189 183 182 180 178 177 171 164 157 150 143 140 138 134 128 122 118 115 112 109 105 101 97 93 93 93 90 89 88 87 85 82 85 89 85 78 70 61 53 49 49 50 58 76 100 129 150
180 181 211 225 225 231 238 237 231 226 228 230 232 235 237 236 235 235 234 226 216 211 209 210 211 212 214 214 212 210 203 205 209 202 205 213 204 194 190 186 185 186 184 181 179 172 165 160 152 146 143 139 135 130 126 125 121 118 114 109 106 103 101 99 95 93 92 90 89 86 82 81 78 76 73 68 58 55 56 60 62 68 75 80 89
166 172 191 204 209 222 229 226 220 218 222 228 233 237 239 240 241 245 244 231 215 209 208 212 219 222 216 212 212 210 205 206 212 209 209 214 212 205 198 193 194 197 195 191 189 184 176 171 164 158 155 147 144 141 139 138 134 132 131 125 122 117 113 111 108 104 100 98 98 95 90 88 85 80 77 75 69 64 60 60 67 72 72 67 64
154 161 170 176 183 196 198 192 199 204 205 211 220 227 234 237 239 242 242 229 216 214 216 221 227 229 219 212 213 213 209 208 210 213 216 216 217 215 208 205 210 215 217 213 209 206 199 196 190 182 179 173 168 165 164 163 160 156 156 154 152 146 139 137 137 133 124 117 115 113 112 111 112 105 93 80 67 64 51 31 39 50 56 55 40
149 155 159 166 172 176 175 169 170 174 175 177 187 197 209 220 225 225 230 230 225 225 229 230 230 228 217 213 215 215 213 211 208 214 220 220 222 222 216 217 222 225 232 236 233 228 224 226 224 214 208 205 205 206 202 199 194 189 185 182 182 181 177 175 175 173 170 169 178 186 192 185 123 45 39 32 20 22 5 341 338 336 340 345 339
148 151 157 162 166 171 169 161 158 163 164 168 181 192 198 210 223 222 222 227 231 233 235 233 230 223 212 210 215 218 218 213 209 215 219 219 223 224 223 227 227 230 241 246 245 239 233 236 238 235 231 230 235 237 233 230 222 219 221 215 207 205 204 202 204 212 212 208 217 226 233 247 273 307 331 340 341 338 331 323 322 323 325 326 325
153 154 155 154 158 164 162 162 170 173 180 193 211 224 217 208 214 221 224 229 233 235 232 226 222 215 207 207 213 218 219 214 213 217 218 219 222 223 228 231 226 230 242 248 250 247 245 249 245 238 237 240 247 250 248 247 244 246 254 254 245 237 232 228 227 232 234 232 234 232 232 243 259 278 300 319 325 322 319 316 315 318 319 320 320
156 154 152 149 155 164 162 161 162 163 187 208 218 237 232 202 198 211 225 234 237 234 221 212 211 209 206 206 210 215 218 216 216 219 221 225 225 223 230 232 227 233 242 247 249 246 245 251 249 243 245 247 253 259 260 259 262 270 274 275 272 265 265 269 264 258 252 247 246 243 236 235 244 261 278 299 312 312 310 309 310 312 313 315 316
158 155 155 156 160 162 154 143 132 124 134 149 160 182 185 181 188 204 222 234 236 227 209 203 206 209 209 209 211 214 216 218 219 220 223 230 229 227 233 234 233 239 245 248 248 243 240 244 245 244 247 251 256 260 261 261 265 274 278 278 278 277 279 282 281 281 278 269 263 257 253 247 243 247 259 277 294 299 301 304 306 308 311 311 309
153 148 150 155 159 161 151 138 136 131 131 139 138 144 161 175 181 197 218 231 227 212 204 204 207 211 213 213 214 215 217 220 222 221 224 229 229 229 235 236 236 242 249 251 248 242 240 245 249 249 247 249 255 258 259 258 261 269 273 272 271 273 276 279 280 280 278 276 274 268 267 268 264 261 261 259 264 272 284 299 309 311 311 307 301
145 140 142 144 148 153 149 146 157 160 159 158 152 152 163 179 186 197 216 227 222 210 208 209 211 215 217 217 219 222 222 221 221 222 225 228 230 233 236 235 237 246 254 255 251 247 247 250 253 253 249 249 254 256 255 254 261 273 277 273 268 265 267 270 272 273 272 271 269 266 266 266 267 269 269 264 259 259 263 274 293 302 304 302 300
150 145 143 141 141 142 141 143 148 152 157 156 158 170 178 186 194 199 207 217 221 221 219 215 214 219 223 226 230 231 228 222 219 221 226 229 231 236 239 239 242 251 257 258 258 256 252 250 250 250 250 253 255 254 251 253 265 275 277 273 268 265 264 265 265 266 269 271 268 265 263 264 265 266 267 266 262 259 261 266 275 287 295 300 300
164 159 153 147 143 143 141 139 139 143 151 153 158 169 181 196 205 202 205 211 215 221 226 224 221 222 226 233 236 231 226 223 221 225 231 232 230 234 242 247 250 253 255 258 259 253 246 245 247 247 250 254 254 254 255 259 266 270 268 267 267 267 267 269 267 265 267 272 270 265 263 264 266 264 263 264 263 261 264 267 271 279 288 297 300
158 166 169 163 154 150 148 146 144 142 141 145 154 164 172 187 198 200 206 208 206 214 220 222 224 226 227 230 229 222 219 222 224 230 236 234 224 226 236 243 243 243 246 250 252 249 245 246 247 245 246 249 252 254 256 258 261 262 262 264 266 267 268 270 270 267 269 272 271 266 262 261 261 262 263 264 264 262 263 266 272 276 276 285 297
102 134 159 161 155 154 155 156 156 151 143 141 148 161 168 175 182 189 194 191 182 185 193 196 200 206 211 213 213 213 212 212 212 212 213 207 198 203 211 215 216 219 226 233 236 242 249 250 249 248 248 249 250 251 253 256 259 263 267 270 270 270 270 270 270 270 270 271 271 268 264 261 261 262 263 265 264 261 260 265 273 276 276 281 292
89 102 116 124 125 127 135 147 153 152 149 148 154 162 166 168 173 179 184 180 172 163 162 170 177 180 182 184 188 192 193 194 197 196 195 195 195 198 198 200 206 209 214 222 229 235 242 247 254 259 263 265 266 266 269 272 273 274 275 275 275 274 273 272 273 273 272 270 269 268 266 263 261 260 260 261 261 257 256 263 272 274 274 280 287
83 93 101 106 106 104 108 118 132 139 137 136 149 162 166 169 172 177 181 185 190 186 179 179 184 186 184 183 186 189 192 197 201 203 207 211 212 212 210 210 214 221 229 237 242 248 254 260 265 268 270 273 275 277 278 278 280 282 281 280 280 279 279 280 281 281 279 275 270 267 265 263 261 259 257 255 253 252 254 262 269 270 271 279 288
60 65 81 95 98 98 103 105 113 129 133 122 120 139 162 176 180 183 190 201 210 209 201 199 201 201 200 197 196 199 205 211 213 215 221 229 235 237 235 237 242 247 251 252 254 259 264 268 272 273 274 275 275 275 277 279 283 286 286 285 285 285 286 288 289 288 285 279 271 265 262 261 261 261 257 253 251 251 254 260 266 269 274 283 291
56 54 53 55 48 56 103 113 116 132 138 127 112 116 140 170 180 184 194 206 214 215 212 211 213 215 214 212 210 213 218 220 220 222 225 232 240 246 250 253 255 255 256 257 259 261 262 263 266 267 268 271 273 275 277 279 280 282 284 286 287 288 291 293 294 292 287 279 271 263 256 256 259 259 255 249 247 249 254 260 266 271 279 288 292
64 65 63 58 48 32 343 267 254 193 184 192 178 142 130 155 174 179 184 194 201 206 210 211 213 216 218 221 226 230 231 229 226 226 228 232 238 246 249 250 250 252 258 264 266 266 266 270 274 273 270 269 269 272 274 275 277 277 279 283 286 289 293 297 298 296 289 279 271 262 252 250 254 252 245 241 244 250 257 263 266 272 280 286 289
50 60 65 63 60 65 67 335 314 291 257 252 243 239 243 222 191 176 187 225 216 202 195 196 200 207 214 219 224 229 237 241 237 233 234 237 242 249 252 258 268 274 280 285 284 279 277 283 287 287 283 279 276 275 274 274 275 276 278 283 286 289 293 297 301 302 296 289 281 270 255 246 243 240 237 240 249 257 261 263 267 273 279 283 285
19 22 26 26 21 30 55 28 6 360 327 295 263 256 260 259 249 235 250 275 250 216 206 204 198 197 205 216 223 227 232 238 238 235 237 244 252 258 261 269 278 282 285 290 290 285 283 288 294 295 292 287 281 278 277 277 278 279 281 285 285 288 292 297 303 306 303 296 288 274 256 243 237 235 238 245 252 256 258 263 269 274 278 280 281
344 339 339 342 341 340 337 334 333 326 326 322 300 284 281 274 265 255 254 263 260 247 242 235 220 206 205 213 221 225 228 232 233 234 239 244 249 253 256 263 272 277 281 286 288 289 292 298 301 301 301 296 287 281 279 280 281 283 284 284 284 287 292 298 303 305 299 290 279 266 254 246 242 243 247 249 250 253 257 263 268 272 275 278 282
320 312 310 311 310 311 314 316 316 310 306 305 303 306 306 293 280 263 254 254 254 254 255 248 239 235 233 233 235 236 238 241 243 245 246 247 248 250 255 265 275 280 284 287 290 293 297 300 302 304 307 305 296 289 286 287 288 288 287 285 286 289 293 297 299 297 288 276 268 260 254 250 249 249 251 251 252 257 262 266 271 275 279 283 287
304 302 302 301 298 298 297 297 298 297 295 294 294 294 291 283 277 265 256 252 248 247 248 248 246 245 245 245 246 246 247 250 253 255 254 254 255 258 262 268 273 278 282 286 288 290 291 294 297 301 305 305 299 292 290 292 293 292 290 288 288 289 291 290 288 286 278 269 264 260 256 254 252 252 254 257 261 266 271 276 279 283 286 289 290
301 299 299 299 299 298 296 294 293 291 290 289 286 284 282 278 271 262 258 259 256 250 247 247 245 243 243 245 247 248 248 250 252 255 256 255 256 258 261 264 267 271 276 280 282 283 285 288 293 297 300 301 297 293 293 293 294 295 293 290 288 286 285 282 277 275 271 267 265 264 262 262 262 262 264 268 272 276 279 282 284 286 289 290 290
306 302 299 299 297 296 294 291 288 286 285 283 280 278 274 268 262 257 252 252 255 255 252 249 245 241 241 242 244 245 246 246 247 249 251 252 253 255 257 259 261 265 269 272 276 280 282 286 290 292 292 290 289 291 293 294 297 297 291 285 281 278 277 273 269 267 267 268 269 269 269 269 268 269 271 274 277 279 280 282 285 287 287 288 288
301 299 299 299 297 296 295 292 288 284 281 278 277 275 272 266 260 256 253 250 251 251 250 249 247 244 243 242 242 240 241 243 244 246 250 253 256 259 260 259 260 264 268 272 276 279 282 284 286 286 284 280 279 282 286 290 295 293 286 277 272 270 269 265 261 261 270 277 278 275 272 270 269 271 274 277 278 280 282 284 286 286 286 288 291
293 294 294 293 293 293 294 294 294 291 285 281 278 276 274 271 268 265 262 261 259 256 252 249 247 244 243 242 241 240 241 243 245 247 249 251 255 258 258 260 263 267 270 273 276 279 282 282 281 280 276 270 266 269 276 282 286 285 278 271 267 266 264 261 257 261 274 280 278 274 271 271 272 274 276 278 281 283 285 285 285 287 290 292 293
292 294 294 292 291 292 293 294 295 295 295 291 286 282 279 276 273 271 268 267 267 266 263 260 255 252 248 245 244 243 243 244 246 249 251 252 254 256 257 260 263 265 267 268 271 277 281 280 278 275 267 259 255 259 266 273 276 274 268 264 263 263 261 259 259 265 274 278 277 275 274 275 277 278 278 279 281 281 282 284 286 289 291 292 293
290 288 287 287 287 288 289 291 293 295 296 292 285 281 279 276 274 273 271 269 268 267 266 265 264 262 260 258 256 253 250 249 248 249 251 252 253 254 254 254 254 255 259 263 267 272 276 277 279 278 272 267 268 268 266 266 267 264 259 256 257 258 259 262 267 273 279 283 283 280 277 275 275 276 274 275 277 278 283 287 290 293 295 297 299
291 285 282 281 282 283 284 285 286 287 286 284 282 279 277 276 276 275 273 272 270 268 267 265 264 264 263 262 262 260 258 256 254 253 251 251 250 249 248 247 248 251 257 261 264 268 273 275 276 276 274 274 275 271 263 258 254 251 249 248 249 252 257 264 273 278 280 281 278 273 270 269 270 271 273 276 280 284 289 293 296 300 303 304 305
291 286 281 279 279 280 280 280 279 279 279 279 280 281 281 281 281 281 281 279 276 273 270 266 263 261 260 259 259 258 257 256 256 255 254 253 253 252 251 250 251 253 256 258 261 266 270 270 269 271 271 267 262 257 251 246 241 239 239 241 244 249 257 265 271 271 268 266 267 267 268 270 272 274 278 282 287 292 296 300 304 308 310 311 309
286 283 281 280 279 278 278 277 276 276 276 277 279 281 282 283 283 282 282 281 279 277 274 270 266 261 258 256 255 254 254 254 254 253 254 254 255 255 255 254 254 254 255 256 258 261 263 263 264 266 264 257 250 246 238 231 229 230 232 238 244 248 253 259 258 255 254 259 268 274 275 276 279 283 288 293 299 304 308 311 313 315 316 315 313